Location: Lecco
(45.8566°N, 9.3977°E)
Time: 02:43:13
(UTC+02:00)

S-56A Canister/Altair - Visible Passes

Search period start: 20 August 2019 00:00
Search period end: 30 August 2019 00:00
Orbit: 633 x 2499 km, 38.9° (Epoch: 18 August)

Date Brightness Start Highest point End Pass type
(mag) Time Alt. Az. Time Alt. Az. Time Alt. Az.
20 Aug 9.5 03:58:58 21° SSE 03:58:58 21° SSE 04:02:21 10° SE visible
21 Aug 10.2 03:29:03 11° SE 03:29:03 11° SE 03:29:23 10° SE visible
21 Aug 9.9 05:26:33 10° SW 05:27:21 11° SSW 05:28:50 10° SSW visible
21 Aug 9.5 22:41:40 10° SSW 22:41:52 11° SSW 22:41:52 11° SSW visible
22 Aug 8.8 22:09:15 10° SSW 22:11:25 18° S 22:11:25 18° S visible
23 Aug 8.6 21:36:47 10° SSW 21:40:18 19° SSE 21:40:53 19° SSE visible
24 Aug 8.9 21:04:17 10° SSW 21:07:47 18° SSE 21:10:14 13° ESE visible
24 Aug 9.3 23:06:36 10° WSW 23:07:41 16° SW 23:07:41 16° SW visible
25 Aug 8.4 22:33:58 10° SW 22:36:57 27° SSW 22:36:57 27° SSW visible
26 Aug 8.0 22:01:17 10° SW 22:05:51 32° S 22:06:09 31° SSE visible
27 Aug 8.2 21:28:31 10° SW 21:33:21 31° S 21:35:18 23° SE visible
27 Aug 9.7 23:32:12 10° WSW 23:32:43 13° WSW 23:32:43 13° WSW visible
28 Aug 8.4 20:55:41 10° SW 21:00:50 31° SSE 21:04:24 13° ESE visible
28 Aug 8.9 22:59:29 10° WSW 23:01:49 23° SW 23:01:49 23° SW visible
29 Aug 8.1 22:26:42 10° WSW 22:30:53 35° SSW 22:30:53 35° SSW visible
